Location: Newark
(53.3333°N, 83.7500°E)
Time: 05:18:17
(UTC+00:00)

SR - Pass Details

Date: 19 November 2019
Orbit: 573 x 882 km, 66.7° (Epoch: 10 December)

Event Time Altitude Azimuth Distance (km) Brightness Sun altitude
Rises 13:59:53 0° 302° (WNW) 3,414 ? -31.8°
Reaches altitude 10° 14:02:53 10° 317° (NW) 2,511 ? -32.2°
Enters shadow 14:06:39 22° 356° (N) 1,823 ? -32.8°
